This demonstration page uses our WeatherBlox Daily Observations layout. Learn more.

Left ArrowRight Arrow

Hourly Observations for March 31, 2018

Temp ( °F °C ) Dew Point ( °F °C ) Humidity (%) Winds ( mph kmh ) Pressure ( in mb ) Visibility ( mi km ) Precip ( " mm )
12:59 am 00:59 Partly Cloudy 51 10.6 38 3.3 61 61 NNW 12 19 30.17 1022 10 16 0.00 0.00
1:59 am 01:59 Partly Cloudy 50 10 35 1.7 57 57 NNW 16 26 30.21 1023 10 16 0.00 0.00
2:59 am 02:59 Partly Cloudy 49 9.4 33 0.6 55 55 NNW 12 19 30.23 1024 10 16 0.00 0.00
3:59 am 03:59 Mostly Clear 47 8.3 32 0 56 56 N 12 19 30.24 1024 10 16 0.00 0.00
4:59 am 04:59 Clear 46 7.8 32 0 58 58 N 13 20 30.26 1025 10 16 0.00 0.00
5:59 am 05:59 Clear 45 7.2 31 -0.6 58 58 N 14 22 30.29 1026 10 16 0.00 0.00
6:59 am 06:59 Partly Cloudy 45 7.2 29 -1.7 54 54 N 15 24 30.33 1027 10 16 0.00 0.00
7:59 am 07:59 Partly Cloudy 46 7.8 29 -1.7 51 51 N 13 20 30.34 1027 10 16 0.00 0.00
8:59 am 08:59 Partly Cloudy 47 8.3 31 -0.6 54 54 N 10 17 30.36 1028 10 16 0.00 0.00
9:59 am 09:59 Mostly Sunny 49 9.4 33 0.6 55 55 NNE 13 20 30.39 1029 10 16 0.00 0.00
10:59 am 10:59 Mostly Sunny 50 10 33 0.6 52 52 NNE 10 17 30.39 1029 10 16 0.00 0.00
11:59 am 11:59 Mostly Sunny 49 9.4 34 1.1 56 56 VRB 6 9 30.39 1029 10 16 0.00 0.00
12:59 pm 12:59 Mostly Sunny 51 10.6 36 2.2 56 56 E 8 13 30.37 1028 10 16 0.00 0.00
1:59 pm 13:59 Mostly Sunny 52 11.1 36 2.2 55 55 E 9 15 30.34 1028 10 16 0.00 0.00
2:59 pm 14:59 Mostly Sunny 53 11.7 34 1.1 48 48 E 8 13 30.31 1026 10 16 0.00 0.00
3:59 pm 15:59 Mostly Sunny 54 12.2 32 0 43 43 ENE 10 17 30.29 1026 10 16 0.00 0.00
4:59 pm 16:59 Partly Cloudy 55 12.8 33 0.6 44 44 NE 8 13 30.27 1025 10 16 0.00 0.00
5:59 pm 17:59 Mostly Sunny 56 13.3 25 -3.9 30 30 SE 6 9 30.26 1025 10 16 0.00 0.00
6:59 pm 18:59 Partly Cloudy 54 12.2 25 -3.9 33 33 SE 8 13 30.25 1024 10 16 0.00 0.00
8:59 pm 20:59 Clear 46 7.8 36 2.2 68 68 SSE 10 17 30.25 1024 10 16 0.00 0.00
9:59 pm 21:59 Clear 45 7.2 36 2.2 71 71 S 8 13 30.25 1024 10 16 0.00 0.00
10:59 pm 22:59 Mostly Clear 46 7.8 36 2.2 68 68 S 8 13 30.24 1024 10 16 0.00 0.00
11:59 pm 23:59 Partly Cloudy 45 7.2 33 0.6 63 63 S 9 15 30.22 1024 10 16 0.00 0.00

Powered by AerisWeather